Location: Wanzleben
(52.0609°N, 11.4408°E)
Time: 03:32:30
(UTC+00:00)

Cosmos 1626 - Pass Details

Date: 18 September 2020
Orbit: 490 x 495 km, 82.5° (Epoch: 22 October)

Event Time Altitude Azimuth Distance (km) Brightness Sun altitude
Rises 18:37:12 0° 1° (N) 2,592 6.0 -12.3°
Reaches altitude 10° 18:39:53 10° 21° (NNE) 1,703 4.8 -12.7°
Maximum altitude 18:42:28 18° 65° (ENE) 1,292 3.8 -13.0°
Enters shadow 18:42:57 17° 75° (ENE) 1,308 3.8 -13.1°
